This demonstration page uses our WeatherBlox Daily Observations layout. Learn more.

Left ArrowRight Arrow

Hourly Observations for June 29, 2021

Temp ( °F °C ) Dew Point ( °F °C ) Humidity (%) Winds ( mph kmh ) Pressure ( in mb ) Visibility ( mi km ) Precip ( " mm )
12:15 am 00:15 Cloudy with Rain 66 19.1 64 17.5 91 91 SE 6 9 30.08 1019 10 16 0.02 0.51
12:35 am 00:35 Cloudy with Light Rain 66 18.7 63 17.2 91 91 NNW 3 6 30.09 1019 10 16 0.03 0.76
12:55 am 00:55 Cloudy 66 18.7 63 17.4 92 92 N N/A 30.09 1019 10 16 0.03 0.76
1:15 am 01:15 Cloudy 66 18.7 64 17.6 93 93 NNE 9 15 30.08 1019 10 16 N/A
1:35 am 01:35 Cloudy 66 18.7 63 17.2 91 91 N N/A 30.09 1019 10 16 N/A
1:55 am 01:55 Partly Cloudy 65 18.5 64 17.5 94 94 N 3 6 30.10 1019 10 16 N/A
2:15 am 02:15 Clear 65 18.1 63 17.4 96 96 N 3 6 30.09 1019 10 16 N/A
2:35 am 02:35 Partly Cloudy 64 17.7 63 17 96 96 N 5 7 30.10 1019 7 11 N/A
2:55 am 02:55 Partly Cloudy with Mist and Fog 63 17.2 62 16.6 96 96 N 3 6 30.10 1019 5 8 N/A
3:15 am 03:15 Clear 63 17.1 62 16.5 96 96 NNW 5 7 30.10 1019 10 16 N/A
3:35 am 03:35 Clear 62 16.9 61 16 94 94 NNW 5 7 30.09 1019 10 16 N/A
3:55 am 03:55 Clear 61 16.3 60 15.5 95 95 N N/A 30.11 1020 7 11 N/A
4:15 am 04:15 Clear 61 16.1 60 15.5 96 96 NNW 3 6 30.11 1020 7 11 N/A
4:35 am 04:35 Clear 61 16 60 15.5 97 97 N N/A 30.11 1020 7 11 N/A
4:55 am 04:55 Clear 60 15.7 59 15.1 96 96 N N/A 30.11 1020 7 11 N/A
5:15 am 05:15 Clear 60 15.6 59 15.1 97 97 N N/A 30.11 1020 7 11 N/A
5:35 am 05:35 Clear with Mist and Fog 60 15.4 59 14.9 97 97 WNW 5 7 30.14 1021 5 8 N/A
5:55 am 05:55 Clear 59 15 58 14.5 97 97 NW 5 7 30.13 1020 7 11 N/A
6:15 am 06:15 Sunny 59 15 58 14.5 97 97 NW 6 9 30.14 1021 7 11 N/A
6:35 am 06:35 Sunny 59 15 58 14.5 97 97 NW 3 6 30.15 1021 7 11 N/A
6:55 am 06:55 Sunny 60 15.4 58 14.6 95 95 NW 5 7 30.15 1021 7 11 N/A
7:15 am 07:15 Sunny 60 15.8 59 15 95 95 N N/A 30.15 1021 7 11 N/A
7:35 am 07:35 Sunny 62 16.4 59 15.1 92 92 NNW 5 7 30.14 1021 10 16 N/A
7:55 am 07:55 Sunny 63 17.1 60 15.4 90 90 NNW 3 6 30.14 1021 10 16 N/A
8:15 am 08:15 Sunny 64 17.7 60 15.7 88 88 NNW 5 7 30.14 1021 10 16 N/A
8:35 am 08:35 Sunny 65 18.4 61 16 86 86 N 3 6 30.13 1020 10 16 N/A
8:55 am 08:55 Sunny 67 19.2 62 16.6 85 85 N 5 7 30.12 1020 10 16 N/A
9:15 am 09:15 Sunny 68 20 62 16.6 81 81 NNE 5 7 30.12 1020 10 16 N/A
9:35 am 09:35 undefined N/A N/A N/A undefined N/A N/A N/A N/A
9:55 am 09:55 undefined N/A N/A N/A undefined N/A N/A N/A N/A
10:15 am 10:15 Sunny 71 21.4 61 16 71 71 N N/A 30.13 1020 N/A N/A
10:35 am 10:35 Sunny 71 21.6 61 16.2 71 71 N N/A 30.11 1020 10 16 N/A
10:55 am 10:55 Sunny 72 22.3 60 15.8 67 67 N N/A 30.11 1020 10 16 N/A
11:15 am 11:15 Sunny 73 22.6 62 16.6 69 69 N N/A 30.11 1019 10 16 N/A
11:35 am 11:35 Sunny 73 23 61 16.3 66 66 N N/A 30.11 1020 10 16 N/A
11:55 am 11:55 Sunny 74 23.4 60 15.6 62 62 N N/A 30.11 1020 10 16 N/A
12:15 pm 12:15 Sunny 75 24 61 16 61 61 ENE 3 6 30.09 1019 10 16 N/A
12:35 pm 12:35 Sunny 75 23.9 60 15.4 59 59 N N/A 30.09 1019 10 16 N/A
12:55 pm 12:55 Sunny 76 24.3 60 15.8 59 59 SE 6 9 30.09 1019 10 16 N/A
1:15 pm 13:15 Sunny 77 24.8 61 16.3 59 59 N N/A 30.09 1019 10 16 N/A
1:35 pm 13:35 Sunny 76 24.5 61 16.1 60 60 E 3 6 30.09 1019 10 16 N/A
1:55 pm 13:55 Sunny 77 24.9 62 16.8 61 61 N N/A 30.08 1019 10 16 N/A
2:15 pm 14:15 Sunny 79 25.9 63 17 58 58 NE 3 6 30.07 1018 10 16 N/A
2:35 pm 14:35 Sunny 79 26.1 61 15.9 53 53 E 5 7 30.07 1018 10 16 N/A
2:55 pm 14:55 Sunny 78 25.8 58 14.4 49 49 N N/A 30.07 1018 10 16 N/A
3:15 pm 15:15 Sunny 78 25.7 59 14.8 51 51 N N/A 30.07 1018 10 16 N/A
3:35 pm 15:35 Sunny 79 26 61 16.3 55 55 N N/A 30.06 1018 10 16 N/A
3:55 pm 15:55 Sunny 78 25.8 61 16.3 56 56 E 5 7 30.06 1018 10 16 N/A
4:15 pm 16:15 Sunny 80 26.7 62 16.9 55 55 N N/A 30.04 1017 10 16 N/A
4:35 pm 16:35 Partly Cloudy 80 26.7 62 16.6 54 54 ESE 6 9 30.04 1017 10 16 N/A
4:55 pm 16:55 Mostly Cloudy 80 26.4 61 16.2 54 54 SE 5 7 30.04 1017 10 16 N/A
5:15 pm 17:15 Mostly Cloudy 79 26.1 62 16.4 55 55 ESE 5 7 30.04 1017 10 16 N/A
5:35 pm 17:35 Partly Cloudy 79 26.3 61 16.3 54 54 ESE 3 6 30.04 1017 10 16 N/A
5:55 pm 17:55 Sunny 80 26.4 60 15.8 52 52 N N/A 30.03 1017 10 16 N/A
6:15 pm 18:15 Sunny 80 26.5 61 15.9 52 52 SE 5 7 30.03 1017 10 16 N/A
6:35 pm 18:35 Sunny 80 26.5 62 16.9 56 56 SE 3 6 30.02 1017 10 16 N/A
6:55 pm 18:55 Sunny 80 26.5 62 16.4 54 54 SE 3 6 30.02 1017 10 16 N/A
7:15 pm 19:15 Sunny 79 25.9 63 17.2 59 59 SSE 3 6 30.04 1017 10 16 N/A
7:35 pm 19:35 Sunny 78 25.5 64 17.6 62 62 N N/A 30.03 1017 10 16 N/A
7:55 pm 19:55 Sunny 77 25.1 65 18.5 67 67 SE 3 6 30.04 1017 10 16 N/A
8:15 pm 20:15 Sunny 76 24.7 66 18.7 69 69 N N/A 30.04 1017 10 16 N/A
8:35 pm 20:35 Sunny 75 24.1 67 19.3 75 75 SE 3 6 30.04 1017 10 16 N/A
8:55 pm 20:55 Sunny 74 23.5 68 20 81 81 ESE 3 6 30.06 1018 10 16 N/A
9:15 pm 21:15 Clear 73 23 66 19.1 79 79 N N/A 30.06 1018 10 16 N/A
9:35 pm 21:35 Clear 72 22.1 66 19.1 83 83 ESE 3 6 30.08 1019 10 16 N/A
9:55 pm 21:55 Clear 71 21.5 65 18.5 83 83 N N/A 30.09 1019 10 16 N/A
10:15 pm 22:15 Clear 70 21 65 18.3 85 85 E 3 6 30.11 1020 10 16 N/A
10:35 pm 22:35 Clear 70 21 65 18.5 86 86 E 5 7 30.11 1020 10 16 N/A
10:55 pm 22:55 Clear 69 20.8 65 18.4 86 86 ESE 7 11 30.11 1020 10 16 N/A
11:15 pm 23:15 Clear 68 20.2 64 18 87 87 ESE 5 7 30.12 1020 10 16 N/A
11:35 pm 23:35 Clear 68 20 65 18.2 89 89 ESE 5 7 30.12 1020 10 16 N/A
11:55 pm 23:55 Clear 68 20 64 18 88 88 SE 5 7 30.12 1020 10 16 N/A

Powered by AerisWeather